H1 CPF 1 NER 2021 10 3 9 7761 glonass122 H2 1004103 9122 37139 2021 10 3 0 0 0 2021 10 6 23 45 0 900 1 1 0 0 0 H9 10 0 59490 0.00000 0 16585915.423 12664867.636 14746661.771 10 0 59490 900.00000 0 17603562.382 13977439.921 12168613.557 10 0 59490 1800.00000 0 18507061.958 14953675.399 9355620.419 10 0 59490 2700.00000 0 19239152.990 15597867.341 6362117.930 10 0 59490 3600.00000 0 19746492.932 15926548.860 3245932.103 10 0 59490 4500.00000 0 19981991.041 15967558.272 67179.752 10 0 59490 5400.00000 0 19906896.840 15758650.097 -3112869.085 10 0 59490 6300.00000 0 19492558.624 15345710.508 -6232946.692 10 0 59490 7200.00000 0 18721780.176 14780651.595 -9232941.090 10 0 59490 8100.00000 0 17589720.032 14119071.436 -12055027.454 10 0 59490 9000.00000 0 16104295.822 13417776.181 -14644758.164 10 0 59490 9900.00000 0 14286075.942 12732265.772 -16952092.599 10 0 59490 10800.00000 0 12167661.156 12114286.517 -18932348.824 10 0 59490 11700.00000 0 9792578.987 11609551.226 -20547060.289 10 0 59490 12600.00000 0 7213733.424 11255721.266 -21764721.896 10 0 59490 13500.00000 0 4491470.323 11080734.776 -22561411.295 10 0 59490 14400.00000 0 1691334.795 11101551.771 -22921272.924 10 0 59490 15300.00000 0 -1118390.092 11323370.466 -22836854.149 10 0 59490 16200.00000 0 -3869264.322 11739350.265 -22309285.057 10 0 59490 17100.00000 0 -6495286.858 12330856.359 -21348295.838 10 0 59490 18000.00000 0 -8935399.765 13068219.306 -19972068.389 10 0 59490 18900.00000 0 -11135796.517 13911981.305 -18206921.801 10 0 59490 19800.00000 0 -13051937.416 14814579.955 -16086834.591 10 0 59490 20700.00000 0 -14650186.085 15722400.958 -13652810.116 10 0 59490 21600.00000 0 -15908996.275 16578114.504 -10952095.204 10 0 59490 22500.00000 0 -16819596.683 17323196.735 -8037265.685 10 0 59490 23400.00000 0 -17386142.592 17900528.417 -4965196.190 10 0 59490 24300.00000 0 -17625326.281 18256958.453 -1795934.840 10 0 59490 25200.00000 0 -17565461.790 18345720.383 1408493.737 10 0 59490 26100.00000 0 -17245082.990 18128595.693 4585331.129 10 0 59490 27000.00000 0 -16711115.723 17577728.442 7672346.294 10 0 59490 27900.00000 0 -16016703.902 16677010.870 10609087.085 10 0 59490 28800.00000 0 -15218784.902 15422978.663 13338094.117 10 0 59490 29700.00000 0 -14375520.693 13825176.376 15806050.119 10 0 59490 30600.00000 0 -13543697.153 11905977.045 17964839.803 10 0 59490 31500.00000 0 -12776204.902 9699864.281 19772497.675 10 0 59490 32400.00000 0 -12119710.588 7252208.584 21194024.604 10 0 59490 33300.00000 0 -11612618.337 4617591.420 22202057.389 10 0 59490 34200.00000 0 -11283407.470 1857749.806 22777379.402 10 0 59490 35100.00000 0 -11149415.423 -960770.360 22909264.360 10 0 59490 36000.00000 0 -11216114.905 -3769152.517 22595649.045 10 0 59490 36900.00000 0 -11476912.693 -6498932.390 21843134.552 10 0 59490 37800.00000 0 -11913475.051 -9084596.572 20666819.105 10 0 59490 38700.00000 0 -12496562.575 -11466049.928 19089968.571 10 0 59490 39600.00000 0 -13187336.179 -13590851.381 17143533.714 10 0 59490 40500.00000 0 -13939076.778 -15416128.420 14865525.686 10 0 59490 41400.00000 0 -14699244.769 -16910094.553 12300263.328 10 0 59490 42300.00000 0 -15411792.056 -18053110.693 9497507.830 10 0 59490 43200.00000 0 -16019629.833 -18838250.488 6511501.650 10 0 59490 44100.00000 0 -16467149.625 -19271349.821 3399929.801 10 0 59490 45000.00000 0 -16702693.566 -19370541.493 222822.626 10 0 59490 45900.00000 0 -16680872.408 -19165296.762 -2958580.335 10 0 59490 46800.00000 0 -16364636.283 -18695014.974 -6082985.423 10 0 59490 47700.00000 0 -15727013.370 -18007220.343 -9090198.771 10 0 59490 48600.00000 0 -14752445.022 -17155440.535 -11922259.177 10 0 59490 49500.00000 0 -13437662.020 -16196854.117 -14524530.550 10 0 59490 50400.00000 0 -11792064.906 -15189803.243 -16846734.997 10 0 59490 51300.00000 0 -9837590.991 -14191273.267 -18843908.662 10 0 59490 52200.00000 0 -7608071.016 -13254442.545 -20477263.397 10 0 59490 53100.00000 0 -5148098.937 -12426403.191 -21714938.540 10 0 59490 54000.00000 0 -2511457.777 -11746147.089 -22532628.624 10 0 59490 54900.00000 0 240837.313 -11242901.313 -22914074.411 10 0 59490 55800.00000 0 3042801.671 -10934883.489 -22851406.542 10 0 59490 56700.00000 0 5825959.235 -10828531.033 -22345333.209 10 0 59490 57600.00000 0 8521936.240 -10918239.174 -21405165.674 10 0 59490 58500.00000 0 11065064.600 -11186621.937 -20048678.094 10 0 59490 59400.00000 0 13394887.465 -11605288.438 -18301801.160 10 0 59490 60300.00000 0 15458462.266 -12136105.053 -16198152.240 10 0 59490 61200.00000 0 17212363.556 -12732892.856 -13778408.273 10 0 59490 62100.00000 0 18624299.803 -13343490.443 -11089531.290 10 0 59490 63000.00000 0 19674273.674 -13912095.510 -8183860.053 10 0 59490 63900.00000 0 20355234.379 -14381785.450 -5118085.039 10 0 59490 64800.00000 0 20673192.387 -14697108.299 -1952127.212 10 0 59490 65700.00000 0 20646790.095 -14806631.275 1252056.066 10 0 59490 66600.00000 0 20306346.108 -14665335.205 4431712.184 10 0 59490 67500.00000 0 19692414.160 -14236749.373 7524554.230 10 0 59490 68400.00000 0 18853919.468 -13494732.459 10470013.680 10 0 59490 69300.00000 0 17845954.155 -12424820.927 13210456.786 10 0 59490 70200.00000 0 16727328.436 -11025085.422 15692337.751 10 0 59490 71100.00000 0 15557984.839 -9306457.718 17867263.552 10 0 59490 72000.00000 0 14396388.212 -7292514.349 19692947.770 10 0 59490 72900.00000 0 13297004.584 -5018726.960 21134033.985 10 0 59490 73800.00000 0 12307977.080 -2531212.593 22162772.869 10 0 59490 74700.00000 0 11469097.509 114961.369 22759540.803 10 0 59490 75600.00000 0 10810158.340 2857844.372 22913191.894 10 0 59490 76500.00000 0 10349752.544 5630953.584 22621239.069 10 0 59490 77400.00000 0 10094568.862 8365808.964 21889863.601 10 0 59490 78300.00000 0 10039208.517 10994546.421 20733755.966 10 0 59490 79200.00000 0 10166527.171 13452500.846 19175794.043 10 0 59490 80100.00000 0 10448484.013 15680653.062 17246567.540 10 0 59490 81000.00000 0 10847458.923 17627841.553 14983760.038 10 0 59490 81900.00000 0 11317979.859 19252650.306 12431402.162 10 0 59490 82800.00000 0 11808786.270 20524897.987 9639011.305 10 0 59490 83700.00000 0 12265141.266 21426670.458 6660634.782 10 0 59490 84600.00000 0 12631295.793 21952857.447 3553814.456 10 0 59490 85500.00000 0 12853002.551 22111174.241 378491.949 10 0 59491 0.00000 0 12879975.883 21921670.091 -2804125.734 10 0 59491 900.00000 0 12668196.428 21415745.277 -5932721.907 10 0 59491 1800.00000 0 12181965.924 20634718.736 -8947022.821 10 0 59491 2700.00000 0 11395627.659 19628005.303 -11788933.112 10 0 59491 3600.00000 0 10294881.404 18450977.534 -14403630.289 10 0 59491 4500.00000 0 8877637.881 17162599.402 -16740601.104 10 0 59491 5400.00000 0 7154376.055 15822928.284 -18754601.526 10 0 59491 6300.00000 0 5147986.182 14490587.129 -20406523.378 10 0 59491 7200.00000 0 2893102.155 13220310.162 -21664151.835 10 0 59491 8100.00000 0 434947.086 12060662.967 -22502799.516 10 0 59491 9000.00000 0 -2172264.247 11052031.289 -22905804.494 10 0 59491 9900.00000 0 -4867304.016 10224962.666 -22864881.393 10 0 59491 10800.00000 0 -7584213.063 9598931.239 -22380316.886 10 0 59491 11700.00000 0 -10254794.469 9181579.289 -21461003.278 10 0 59491 12600.00000 0 -12811217.846 8968469.901 -20124306.523 10 0 59491 13500.00000 0 -15188627.503 8943364.049 -18395768.004 10 0 59491 14400.00000 0 -17327646.071 9079013.492 -16308642.605 10 0 59491 15300.00000 0 -19176668.066 9338438.755 -13903279.159 10 0 59491 16200.00000 0 -20693845.604 9676640.283 -11226352.933 10 0 59491 17100.00000 0 -21848680.460 10042671.442 -8329963.460 10 0 59491 18000.00000 0 -22623152.650 10381985.504 -5270614.768 10 0 59491 18900.00000 0 -23012335.333 10638955.780 -2108098.300 10 0 59491 19800.00000 0 -23024467.922 10759459.506 1095698.272 10 0 59491 20700.00000 0 -22680482.959 10693412.513 4278030.605 10 0 59491 21600.00000 0 -22013006.614 10397143.201 7376558.413 10 0 59491 22500.00000 0 -21064876.041 9835501.127 10330599.317 10 0 59491 23400.00000 0 -19887238.422 8983607.172 13082347.729 10 0 59491 24300.00000 0 -18537315.048 7828168.247 15578031.792 10 0 59491 25200.00000 0 -17075928.380 6368298.947 17768983.109 10 0 59491 26100.00000 0 -15564900.058 4615814.722 19612596.501 10 0 59491 27000.00000 0 -14064432.719 2594984.449 21073160.182 10 0 59491 27900.00000 0 -12630588.254 341754.089 22122540.294 10 0 59491 28800.00000 0 -11312969.865 -2097524.018 22740707.463 10 0 59491 29700.00000 0 -10152705.285 -4667800.735 22916097.058 10 0 59491 30600.00000 0 -9180814.454 -7307404.907 22645798.623 10 0 59491 31500.00000 0 -8417027.656 -9950394.824 21935573.691 10 0 59491 32400.00000 0 -7869100.185 -12529087.302 20799704.710 10 0 59491 33300.00000 0 -7532648.222 -14976658.866 19260680.919 10 0 59491 34200.00000 0 -7391508.648 -17229711.551 17348729.971 10 0 59491 35100.00000 0 -7418603.679 -19230698.447 15101206.561 10 0 59491 36000.00000 0 -7577270.675 -20930110.769 12561851.483 10 0 59491 36900.00000 0 -7822998.792 -22288338.726 9779936.457 10 0 59491 37800.00000 0 -8105498.041 -23277132.388 6809311.558 10 0 59491 38700.00000 0 -8371013.400 -23880605.393 3707373.228 10 0 59491 39600.00000 0 -8564787.317 -24095742.946 533971.918 10 0 59491 40500.00000 0 -8633568.450 -23932395.694 -2649721.062 10 0 59491 41400.00000 0 -8528063.104 -23412761.587 -5782367.576 10 0 59491 42300.00000 0 -8205228.450 -22570378.254 -8803617.431 10 0 59491 43200.00000 0 -7630313.132 -21448667.833 -11655244.036 10 0 59491 44100.00000 0 -6778561.037 -20099093.893 -14282241.490 10 0 59491 45000.00000 0 -5636507.418 -18579005.522 -16633864.121 10 0 59491 45900.00000 0 -4202812.733 -16949256.090 -18664590.510 10 0 59491 46800.00000 0 -2488597.774 -15271693.331 -20334994.977 10 0 59491 47700.00000 0 -517263.592 -13606622.849 -21612510.690 10 0 59491 48600.00000 0 1676199.816 -12010348.550 -22472070.046 10 0 59491 49500.00000 0 4046391.475 -10532891.015 -22896609.609 10 0 59491 50400.00000 0 6539119.489 -9215978.279 -22877428.625 10 0 59491 51300.00000 0 9093400.287 -8091393.084 -22414392.359 10 0 59491 52200.00000 0 11643757.991 -7179746.797 -21515973.776 10 0 59491 53100.00000 0 14122731.350 -6489733.261 -20199129.783 10 0 59491 54000.00000 0 16463486.050 -6017896.322 -18489011.166 10 0 59491 54900.00000 0 18602424.400 -5748923.534 -16418508.636 10 0 59491 55800.00000 0 20481682.993 -5656456.358 -14027640.808 10 0 59491 56700.00000 0 22051412.341 -5704384.856 -11362793.664 10 0 59491 57600.00000 0 23271740.541 -5848573.550 -8475824.607 10 0 59491 58500.00000 0 24114335.471 -6038945.767 -5423047.987 10 0 59491 59400.00000 0 24563496.723 -6221837.299 -2264122.246 10 0 59491 60300.00000 0 24616728.486 -6342517.534 939138.239 10 0 59491 61200.00000 0 24284767.120 -6347768.055 4124000.991 10 0 59491 62100.00000 0 23591061.246 -6188405.536 7228075.808 10 0 59491 63000.00000 0 22570726.452 -5821637.826 10190569.647 10 0 59491 63900.00000 0 21269020.144 -5213149.366 12953507.900 10 0 59491 64800.00000 0 19739403.334 -4338824.190 15462895.029 10 0 59491 65700.00000 0 18041274.295 -3186031.000 17669789.184 10 0 59491 66600.00000 0 16237473.106 -1754414.616 19531267.878 10 0 59491 67500.00000 0 14391665.497 -56160.029 21011264.953 10 0 59491 68400.00000 0 12565718.774 1884281.304 22081262.586 10 0 59491 69300.00000 0 10817181.874 4030989.826 22720825.813 10 0 59491 70200.00000 0 9196975.888 6337865.266 22917971.032 10 0 59491 71100.00000 0 7747391.048 8750346.907 22669363.815 10 0 59491 72000.00000 0 6500472.128 11207492.612 21980345.020 10 0 59491 72900.00000 0 5476856.659 13644328.272 20864787.809 10 0 59491 73800.00000 0 4685110.618 15994368.920 19344791.249 10 0 59491 74700.00000 0 4121585.068 18192206.511 17450219.167 10 0 59491 75600.00000 0 3770795.295 20176057.747 15218095.403 10 0 59491 76500.00000 0 3606302.534 21890167.895 12691868.789 10 0 59491 77400.00000 0 3592058.004 23286973.158 9920563.114 10 0 59491 78300.00000 0 3684150.488 24328934.850 6957828.842 10 0 59491 79200.00000 0 3832882.782 24989972.325 3860914.520 10 0 59491 80100.00000 0 3985089.595 25256438.186 689576.910 10 0 59491 81000.00000 0 4086600.246 25127597.946 -2495050.637 10 0 59491 81900.00000 0 4084744.129 24615596.234 -5631611.621 10 0 59491 82800.00000 0 3930795.588 23744912.124 -8659681.540 10 0 59491 83700.00000 0 3582257.487 22551326.531 -11520904.863 10 0 59491 84600.00000 0 3004889.306 21080443.912 -14160094.376 10 0 59491 85500.00000 0 2174395.817 19385828.228 -16526273.874 10 0 59492 0.00000 0 1077705.895 17526828.662 -18573646.057 10 0 59492 900.00000 0 -286213.555 15566181.810 -20262469.561 10 0 59492 1800.00000 0 -1906042.921 13567489.872 -21559826.563 10 0 59492 2700.00000 0 -3758312.603 11592673.795 -22440270.237 10 0 59492 3600.00000 0 -5808117.050 9699507.673 -22886336.346 10 0 59492 4500.00000 0 -8010315.274 7939334.709 -22888909.163 10 0 59492 5400.00000 0 -10311172.295 6355059.506 -22447432.578 10 0 59492 6300.00000 0 -12650377.561 4979500.841 -21569959.828 10 0 59492 7200.00000 0 -14963359.890 3834175.014 -20273037.922 10 0 59492 8100.00000 0 -17183805.247 2928562.682 -18581425.766 10 0 59492 9000.00000 0 -19246273.908 2259892.284 -16527648.173 10 0 59492 9900.00000 0 -21088807.803 1813451.775 -14151391.482 10 0 59492 10800.00000 0 -22655417.950 1563417.765 -11498750.067 10 0 59492 11700.00000 0 -23898345.574 1474168.740 -8621336.698 10 0 59492 12600.00000 0 -24779998.940 1502027.672 -5575273.455 10 0 59492 13500.00000 0 -25274481.165 1597359.835 -2420083.132 10 0 59492 14400.00000 0 -25368641.357 1706935.422 782495.842 10 0 59492 15300.00000 0 -25062602.000 1776454.137 3969745.512 10 0 59492 16200.00000 0 -24369738.453 1753121.151 7079228.387 10 0 59492 17100.00000 0 -23316110.690 1588161.136 10050043.343 10 0 59492 18000.00000 0 -21939371.766 1239159.668 12824049.256 10 0 59492 18900.00000 0 -20287200.753 672129.001 15347029.271 10 0 59492 19800.00000 0 -18415328.797 -136792.307 17569770.237 10 0 59492 20700.00000 0 -16385244.655 -1200079.815 19449034.215 10 0 59492 21600.00000 0 -14261679.534 -2518057.766 20948402.177 10 0 59492 22500.00000 0 -12109979.890 -4078659.866 22038973.434 10 0 59492 23400.00000 0 -9993480.694 -5857725.106 22699908.090 10 0 59492 24300.00000 0 -7970990.400 -7819814.271 22918803.814 10 0 59492 25200.00000 0 -6094492.755 -9919510.602 22691902.031 10 0 59492 26100.00000 0 -4407160.203 -12103147.763 22024122.394 10 0 59492 27000.00000 0 -2941759.236 -14310890.844 20928927.922 10 0 59492 27900.00000 0 -1719510.630 -16479082.143 19428026.373 10 0 59492 28800.00000 0 -749447.969 -18542753.188 17550916.357 10 0 59492 29700.00000 0 -28296.601 -20438198.645 15334289.244 10 0 59492 30600.00000 0 459126.360 -22105506.142 12821300.087 10 0 59492 31500.00000 0 739011.672 -23490938.586 10060722.756 10 0 59492 32400.00000 0 847198.132 -24549072.453 7106005.977 10 0 59492 33300.00000 0 827412.431 -25244605.951 4014248.170 10 0 59492 34200.00000 0 729183.541 -25553764.713 845110.087 10 0 59492 35100.00000 0 605519.221 -25465249.234 -2340315.264 10 0 59492 36000.00000 0 510441.235 -24980686.739 -5480655.465 10 0 59492 36900.00000 0 496481.249 -24114570.074 -8515414.201 10 0 59492 37800.00000 0 612240.646 -22893686.637 -11386109.535 10 0 59492 38700.00000 0 900114.814 -21356060.629 -14037375.467 10 0 59492 39600.00000 0 1394275.863 -19549451.246 -16418007.748 10 0 59492 40500.00000 0 2118997.535 -17529467.060 -18481935.877 10 0 59492 41400.00000 0 3087392.597 -15357372.207 -20189104.202 10 0 59492 42300.00000 0 4300616.724 -13097672.551 -21506246.136 10 0 59492 43200.00000 0 5747574.436 -10815579.084 -22407537.046 10 0 59492 44100.00000 0 7405142.667 -8574451.275 -22875112.896 10 0 59492 45000.00000 0 9238906.611 -6433324.614 -22899443.508 10 0 59492 45900.00000 0 11204381.577 -4444623.928 -22479551.457 10 0 59492 46800.00000 0 13248674.417 -2652157.354 -21623069.873 10 0 59492 47700.00000 0 15312519.183 -1089475.275 -20346135.071 10 0 59492 48600.00000 0 17332605.407 221335.779 -18673112.872 10 0 59492 49500.00000 0 19244103.925 1270371.768 -16636160.609 10 0 59492 50400.00000 0 20983285.448 2060109.710 -14274630.364 10 0 59492 51300.00000 0 22490121.781 2605075.551 -11634322.537 10 0 59492 52200.00000 0 23710758.881 2930993.398 -8766602.534 10 0 59492 53100.00000 0 24599755.056 3073450.833 -5727397.097 10 0 59492 54000.00000 0 25121986.834 3076136.602 -2576090.071 10 0 59492 54900.00000 0 25254138.588 2988726.279 625659.521 10 0 59492 55800.00000 0 24985709.797 2864507.633 3815151.707 10 0 59492 56700.00000 0 24319494.794 2757849.508 6929905.075 10 0 59492 57600.00000 0 23271513.135 2721625.387 9908913.547 10 0 59492 58500.00000 0 21870393.104 2804704.995 12693872.301 10 0 59492 59400.00000 0 20156235.203 3049624.235 15230345.594 10 0 59492 60300.00000 0 18179005.379 3490535.601 17468850.983 10 0 59492 61200.00000 0 15996528.395 4151528.301 19365836.667 10 0 59492 62100.00000 0 13672168.819 5045390.540 20884531.909 10 0 59492 63000.00000 0 11272299.973 6172866.497 21995653.896 10 0 59492 63900.00000 0 8863669.630 7522438.420 22677958.131 10 0 59492 64800.00000 0 6510774.343 9070641.366 22918623.466 10 0 59492 65700.00000 0 4273352.737 10782895.019 22713466.688 10 0 59492 66600.00000 0 2204101.755 12614815.189 22066985.336 10 0 59492 67500.00000 0 346709.105 14513947.639 20992230.984 10 0 59492 68400.00000 0 -1265719.174 16421849.781 19510518.415 10 0 59492 69300.00000 0 -2611774.410 18276431.948 17650979.040 10 0 59492 70200.00000 0 -3682362.269 20014460.111 15449969.529 10 0 59492 71100.00000 0 -4480799.923 21574116.121 12950348.738 10 0 59492 72000.00000 0 -5022393.680 22897510.016 10200638.081 10 0 59492 72900.00000 0 -5333518.540 23933041.698 7254081.927 10 0 59492 73800.00000 0 -5450241.077 24637516.101 4167625.921 10 0 59492 74700.00000 0 -5416545.121 24977926.322 1000832.153 10 0 59492 75600.00000 0 -5282235.374 24932833.096 -2185249.328 10 0 59492 76500.00000 0 -5100606.582 24493285.292 -5329232.733 10 0 59492 77400.00000 0 -4925974.924 23663244.679 -8370552.357 10 0 59492 78300.00000 0 -4811173.511 22459497.981 -11250602.129 10 0 59492 79200.00000 0 -4805115.154 20911059.634 -13913839.344 10 0 59492 80100.00000 0 -4950522.825 19058088.924 -16308833.552 10 0 59492 81000.00000 0 -5281921.616 16950364.427 -18389242.501 10 0 59492 81900.00000 0 -5823975.780 14645376.366 -20114697.989 10 0 59492 82800.00000 0 -6590240.859 12206112.923 -21451585.593 10 0 59492 83700.00000 0 -7582384.595 9698629.064 -22373703.759 10 0 59492 84600.00000 0 -8789911.755 7189495.586 -22862789.250 10 0 59492 85500.00000 0 -10190407.762 4743231.705 -22908897.730 10 0 59493 0.00000 0 -11750294.905 2419826.057 -22510630.442 10 0 59493 900.00000 0 -13426074.751 272446.921 -21675199.851 10 0 59493 1800.00000 0 -15166006.909 -1654559.886 -20418330.678 10 0 59493 2700.00000 0 -16912160.444 -3327305.269 -18763994.284 10 0 59493 3600.00000 0 -18602752.805 -4723550.155 -16743978.728 10 0 59493 4500.00000 0 -20174680.633 -5833406.919 -14397299.667 10 0 59493 5400.00000 0 -21566136.406 -6659516.953 -11769461.074 10 0 59493 6300.00000 0 -22719199.887 -7216694.772 -8911578.318 10 0 59493 7200.00000 0 -23582293.045 -7531052.019 -5879379.994 10 0 59493 8100.00000 0 -24112391.859 -7638637.710 -2732108.105 10 0 59493 9000.00000 0 -24276898.075 -7583652.576 468660.651 10 0 59493 9900.00000 0 -24055088.219 -7416314.674 3660247.221 10 0 59493 10800.00000 0 -23439075.426 -7190469.338 6780129.166 10 0 59493 11700.00000 0 -22434241.055 -6961048.273 9767198.295 10 0 59493 12600.00000 0 -21059116.551 -6781489.493 12562988.783 10 0 59493 13500.00000 0 -19344720.478 -6701231.507 15112848.509 10 0 59493 14400.00000 0 -17333379.727 -6763391.612 17367027.953 10 0 59493 15300.00000 0 -15077086.662 -7002729.494 19281663.299 10 0 59493 16200.00000 0 -12635463.971 -7443984.184 20819633.504 10 0 59493 17100.00000 0 -10073425.521 -8100655.364 21951274.539 10 0 59493 18000.00000 0 -7458634.044 -8974279.960 22654937.714 10 0 59493 18900.00000 0 -4858864.027 -10054233.072 22917382.978 10 0 59493 19800.00000 0 -2339381.091 -11318059.381 22734001.934 10 0 59493 20700.00000 0 39552.832 -12732318.411 22108869.070 10 0 59493 21600.00000 0 2224945.860 -14253905.473 21054623.240 10 0 59493 22500.00000 0 4173022.206 -15831790.451 19592184.698 10 0 59493 23400.00000 0 5850770.291 -17409099.736 17750315.874 10 0 59493 24300.00000 0 7237032.741 -18925453.067 15565036.743 10 0 59493 25200.00000 0 8323097.411 -20319457.412 13078907.799 10 0 59493 26100.00000 0 9112769.324 -21531254.296 10340195.660 10 0 59493 27000.00000 0 9621924.704 -22505015.663 7401937.884 10 0 59493 27900.00000 0 9877569.195 -23191286.136 4320924.788 10 0 59493 28800.00000 0 9916442.086 -23549076.295 1156617.196 10 0 59493 29700.00000 0 9783226.429 -23547622.121 -2029980.402 10 0 59493 30600.00000 0 9528440.364 -23167739.417 -5177471.414 10 0 59493 31500.00000 0 9206097.351 -22402718.443 -8225223.244 10 0 59493 32400.00000 0 8871232.057 -21258722.439 -11114508.086 10 0 59493 33300.00000 0 8577393.747 -19754673.422 -13789608.808 10 0 59493 34200.00000 0 8374210.306 -17921629.124 -16198870.890 10 0 59493 35100.00000 0 8305123.219 -15801675.043 -18295682.265 10 0 59493 36000.00000 0 8405387.207 -13446374.941 -20039363.862 10 0 59493 36900.00000 0 8700417.918 -10914840.877 -21395954.793 10 0 59493 37800.00000 0 9204557.440 -8271499.239 -22338877.584 10 0 59493 38700.00000 0 9920310.996 -5583641.856 -22849470.393 10 0 59493 39600.00000 0 10838089.398 -2918860.613 -22917374.891 10 0 59493 40500.00000 0 11936471.546 -342469.421 -22540770.635 10 0 59493 41400.00000 0 13182979.993 2084981.146 -21726448.920 10 0 59493 42300.00000 0 14535341.234 4309993.823 -20489721.804 10 0 59493 43200.00000 0 15943181.815 6288123.639 -18854164.813 10 0 59493 44100.00000 0 17350092.352 7985601.254 -16851195.005 10 0 59493 45000.00000 0 18695974.972 9380510.798 -14519489.559 10 0 59493 45900.00000 0 19919576.454 10463470.569 -11904253.629 10 0 59493 46800.00000 0 20961100.038 11237785.636 -9056349.856 10 0 59493 47700.00000 0 21764784.102 11719063.926 -6031305.716 10 0 59493 48600.00000 0 22281336.128 11934310.736 -2888218.196 10 0 59493 49500.00000 0 22470115.640 11920539.695 311421.634 10 0 59493 50400.00000 0 22300970.016 11722959.771 3504958.951 10 0 59493 51300.00000 0 21755641.920 11392817.158 6629833.499 10 0 59493 52200.00000 0 20828685.774 10984986.487 9624837.979 10 0 59493 53100.00000 0 19527852.412 10555417.121 12431348.282 10 0 59493 54000.00000 0 17873924.721 10158546.770 14994498.270 10 0 59493 54900.00000 0 15900011.429 9844795.798 17264273.337 10 0 59493 55800.00000 0 13650330.140 9658251.565 19196499.231 10 0 59493 56700.00000 0 11178532.992 9634643.097 20753705.788 10 0 59493 57600.00000 0 8545647.816 9799692.861 21905848.537 10 0 59493 58500.00000 0 5817723.852 10167915.199 22630874.942 10 0 59493 59400.00000 0 3063282.787 10741910.901 22915125.966 10 0 59493 60300.00000 0 350683.119 11512185.500 22753567.501 10 0 59493 61200.00000 0 -2254491.598 12457496.189 22149849.997 10 0 59493 62100.00000 0 -4691912.487 13545709.715 21116198.161 10 0 59493 63000.00000 0 -6908751.706 14735132.330 19673135.862 10 0 59493 63900.00000 0 -8861604.750 15976253.465 17849054.327 10 0 59493 64800.00000 0 -10518012.567 17213828.221 15679634.325 10 0 59493 65700.00000 0 -11857524.445 18389210.500 13207135.271 10 0 59493 66600.00000 0 -12872261.855 19442839.012 10479566.180 10 0 59493 67500.00000 0 -13566964.143 20316772.977 7549754.957 10 0 59493 68400.00000 0 -13958517.931 20957172.997 4474333.808 10 0 59493 69300.00000 0 -14074992.880 21316625.401 1312659.601 10 0 59493 70200.00000 0 -13954226.138 21356215.222 -1874311.314 10 0 59493 71100.00000 0 -13642015.622 21047263.392 -5025173.973 10 0 59493 72000.00000 0 -13189997.627 20372657.449 -8079231.180 10 0 59493 72900.00000 0 -12653296.667 19327721.435 -10977635.501 10 0 59493 73800.00000 0 -12088044.300 17920589.018 -13664497.297 10 0 59493 74700.00000 0 -11548868.838 16172063.699 -16087939.673 10 0 59493 75600.00000 0 -11086459.052 14114970.271 -18201082.200 10 0 59493 76500.00000 0 -10745302.137 11793021.915 -19962936.154 10 0 59493 77400.00000 0 -10561689.580 9259246.762 -21339195.147 10 0 59493 78300.00000 0 -10562074.132 6574035.457 -22302906.506 10 0 59493 79200.00000 0 -10761847.450 3802886.760 -22835010.236 10 0 59493 80100.00000 0 -11164591.368 1013941.066 -22924734.200 10 0 59493 81000.00000 0 -11761836.865 -1724599.078 -22569836.171 10 0 59493 81900.00000 0 -12533344.269 -4347056.848 -21776685.709 10 0 59493 82800.00000 0 -13447896.784 -6792771.170 -20560181.345 10 0 59493 83700.00000 0 -14464577.862 -9008385.701 -18943501.484 10 0 59493 84600.00000 0 -15534482.212 -10949840.647 -16957690.518 10 0 59493 85500.00000 0 -16602791.129 -12583982.531 -14641085.125 99